User: anonymous   Login
Location: Copeville
(33.0796°N, 96.4155°W)
Time: 04:59:38
(UTC+00:00)
Language:

Max Valier Satellite - Orbit

View from above orbital plane
View from above orbital plane
View from above satellite
View from above satellite

Ground track
Ground track

The orbit data is extracted from the following two-line orbital elements,

1 42778U 17036P   24105.06355746  .00108485  00000-0  10392-2 0  9996
2 42778  97.1104 141.7125 0006528 100.7225 259.4771 15.66298080379471
Epoch (UTC): 14 April 2024 01:31:31
Eccentricity: 0.0006528
inclination: 97.1104°
perigee height: 365 km
apogee height: 374 km
right ascension of ascending node: 141.7125°
argument of perigee: 100.7225°
revolutions per day: 15.66298080
mean anomaly at epoch: 259.4771°
orbit number at epoch: 37947

The dashed part of the orbit path shows where the satellite is in the earth's shadow,  

DLR